owner,sensor,date,latitude,longitude,vertical_datum,sea_water_practical_salinity,qcFlag 
SCCF RECON,ioos:station:SCCF:18:1,2017-05-01T00:00:00Z,26.6955,-81.8138,1.779,9.52,1111122 
SCCF RECON,ioos:station:SCCF:18:1,2017-05-01T01:00:00Z,26.6955,-81.8138,1.74,9.55,1111122 
SCCF RECON,ioos:station:SCCF:18:1,2017-05-01T02:00:00Z,26.6955,-81.8138,1.675,9.39,1111122 
SCCF RECON,ioos:station:SCCF:18:1,2017-05-01T03:00:00Z,26.6955,-81.8138,1.607,9.32,1111122 
SCCF RECON,ioos:station:SCCF:18:1,2017-05-01T04:00:00Z,26.6955,-81.8138,1.54,9.25,1111122 
SCCF RECON,ioos:station:SCCF:18:1,2017-05-01T05:00:00Z,26.6955,-81.8138,1.478,9.13,1111122 
SCCF RECON,ioos:station:SCCF:18:1,2017-05-01T06:00:00Z,26.6955,-81.8138,1.411,9.05,1111122 
SCCF RECON,ioos:station:SCCF:18:1,2017-05-01T07:00:00Z,26.6955,-81.8138,1.351,8.9,1111122 
SCCF RECON,ioos:station:SCCF:18:1,2017-05-01T08:00:00Z,26.6955,-81.8138,1.31,9.01,1111122 
SCCF RECON,ioos:station:SCCF:18:1,2017-05-01T09:00:00Z,26.6955,-81.8138,1.31,9.11,1111122 
SCCF RECON,ioos:station:SCCF:18:1,2017-05-01T10:00:00Z,26.6955,-81.8138,1.351,9.19,1111122 
SCCF RECON,ioos:station:SCCF:18:1,2017-05-01T11:00:00Z,26.6955,-81.8138,1.43,9.24,1111122 
SCCF RECON,ioos:station:SCCF:18:1,2017-05-01T12:00:00Z,26.6955,-81.8138,1.5,9.2,1111122 
SCCF RECON,ioos:station:SCCF:18:1,2017-05-01T13:00:00Z,26.6955,-81.8138,1.54,9.48,1111122 
SCCF RECON,ioos:station:SCCF:18:1,2017-05-01T14:00:00Z,26.6955,-81.8138,1.59,9.5,1111122 
SCCF RECON,ioos:station:SCCF:18:1,2017-05-01T15:00:00Z,26.6955,-81.8138,1.627,9.62,1111122 
SCCF RECON,ioos:station:SCCF:18:1,2017-05-01T16:00:00Z,26.6955,-81.8138,1.621,9.16,1111122 
SCCF RECON,ioos:station:SCCF:18:1,2017-05-01T17:00:00Z,26.6955,-81.8138,1.62,9.02,1111122 
SCCF RECON,ioos:station:SCCF:18:1,2017-05-01T18:00:00Z,26.6955,-81.8138,1.616,9.2,1111122 
SCCF RECON,ioos:station:SCCF:18:1,2017-05-01T19:00:00Z,26.6955,-81.8138,1.633,9.25,1111122 
SCCF RECON,ioos:station:SCCF:18:1,2017-05-01T20:00:00Z,26.6955,-81.8138,1.671,9.79,1111122 
SCCF RECON,ioos:station:SCCF:18:1,2017-05-01T21:00:00Z,26.6955,-81.8138,1.71,10.36,1111122 
SCCF RECON,ioos:station:SCCF:18:1,2017-05-01T22:00:00Z,26.6955,-81.8138,1.743,10.98,1111122 
SCCF RECON,ioos:station:SCCF:18:1,2017-05-01T23:00:00Z,26.6955,-81.8138,1.769,11.06,1111122 
SCCF RECON,ioos:station:SCCF:18:1,2017-05-02T00:00:00Z,26.6955,-81.8138,1.77,10.73,1111122 
SCCF RECON,ioos:station:SCCF:18:1,2017-05-02T01:00:00Z,26.6955,-81.8138,1.73,9.93,1111122 
SCCF RECON,ioos:station:SCCF:18:1,2017-05-02T02:00:00Z,26.6955,-81.8138,1.667,9.33,1111122 
SCCF RECON,ioos:station:SCCF:18:1,2017-05-02T03:00:00Z,26.6955,-81.8138,1.598,9.27,1111122 
SCCF RECON,ioos:station:SCCF:18:1,2017-05-02T04:00:00Z,26.6955,-81.8138,1.55,9.16,1111122 
SCCF RECON,ioos:station:SCCF:18:1,2017-05-02T05:00:00Z,26.6955,-81.8138,1.5,9.0,1111122 
SCCF RECON,ioos:station:SCCF:18:1,2017-05-02T06:00:00Z,26.6955,-81.8138,1.43,8.9,1111122 
SCCF RECON,ioos:station:SCCF:18:1,2017-05-02T07:00:00Z,26.6955,-81.8138,1.363,8.86,1111122 
SCCF RECON,ioos:station:SCCF:18:1,2017-05-02T08:00:00Z,26.6955,-81.8138,1.317,8.81,1111122 
SCCF RECON,ioos:station:SCCF:18:1,2017-05-02T09:00:00Z,26.6955,-81.8138,1.299,8.77,1111122 
SCCF RECON,ioos:station:SCCF:18:1,2017-05-02T10:00:00Z,26.6955,-81.8138,1.315,8.65,1111122 
SCCF RECON,ioos:station:SCCF:18:1,2017-05-02T11:00:00Z,26.6955,-81.8138,1.38,8.92,1111122 
SCCF RECON,ioos:station:SCCF:18:1,2017-05-02T12:00:00Z,26.6955,-81.8138,1.46,9.1,1111122 
SCCF RECON,ioos:station:SCCF:18:1,2017-05-02T13:00:00Z,26.6955,-81.8138,1.52,9.58,1111122 
SCCF RECON,ioos:station:SCCF:18:1,2017-05-02T14:00:00Z,26.6955,-81.8138,1.561,9.49,1111122 
SCCF RECON,ioos:station:SCCF:18:1,2017-05-02T15:00:00Z,26.6955,-81.8138,1.595,9.52,1111122 
SCCF RECON,ioos:station:SCCF:18:1,2017-05-02T16:00:00Z,26.6955,-81.8138,1.618,9.7,1111122 
SCCF RECON,ioos:station:SCCF:18:1,2017-05-02T17:00:00Z,26.6955,-81.8138,1.618,9.77,1111122 
SCCF RECON,ioos:station:SCCF:18:1,2017-05-02T18:00:00Z,26.6955,-81.8138,1.597,9.71,1111122 
SCCF RECON,ioos:station:SCCF:18:1,2017-05-02T19:00:00Z,26.6955,-81.8138,1.558,9.6,1111122 
SCCF RECON,ioos:station:SCCF:18:1,2017-05-02T20:00:00Z,26.6955,-81.8138,1.538,9.44,1111122 
SCCF RECON,ioos:station:SCCF:18:1,2017-05-02T21:00:00Z,26.6955,-81.8138,1.555,9.57,1111122 
SCCF RECON,ioos:station:SCCF:18:1,2017-05-02T22:00:00Z,26.6955,-81.8138,1.6,9.62,1111122 
SCCF RECON,ioos:station:SCCF:18:1,2017-05-02T23:00:00Z,26.6955,-81.8138,1.649,9.95,1111122 
SCCF RECON,ioos:station:SCCF:18:1,2017-05-03T00:00:00Z,26.6955,-81.8138,1.663,9.89,1111122 
SCCF RECON,ioos:station:SCCF:18:1,2017-05-03T01:00:00Z,26.6955,-81.8138,1.67,9.59,1111122 
SCCF RECON,ioos:station:SCCF:18:1,2017-05-03T02:00:00Z,26.6955,-81.8138,1.678,9.5,1111122 
SCCF RECON,ioos:station:SCCF:18:1,2017-05-03T03:00:00Z,26.6955,-81.8138,1.64,9.25,1111122 
SCCF RECON,ioos:station:SCCF:18:1,2017-05-03T04:00:00Z,26.6955,-81.8138,1.575,9.0,1111122 
SCCF RECON,ioos:station:SCCF:18:1,2017-05-03T05:00:00Z,26.6955,-81.8138,1.51,8.93,1111122 
SCCF RECON,ioos:station:SCCF:18:1,2017-05-03T06:00:00Z,26.6955,-81.8138,1.45,8.89,1111122 
SCCF RECON,ioos:station:SCCF:18:1,2017-05-03T07:00:00Z,26.6955,-81.8138,1.391,8.85,1111122 
SCCF RECON,ioos:station:SCCF:18:1,2017-05-03T08:00:00Z,26.6955,-81.8138,1.332,8.73,1111122 
SCCF RECON,ioos:station:SCCF:18:1,2017-05-03T09:00:00Z,26.6955,-81.8138,1.28,8.69,1111122 
SCCF RECON,ioos:station:SCCF:18:1,2017-05-03T10:00:00Z,26.6955,-81.8138,1.25,8.67,1111122 
SCCF RECON,ioos:station:SCCF:18:1,2017-05-03T11:00:00Z,26.6955,-81.8138,1.259,8.64,1111122 
SCCF RECON,ioos:station:SCCF:18:1,2017-05-03T12:00:00Z,26.6955,-81.8138,1.34,8.83,1111122 
SCCF RECON,ioos:station:SCCF:18:1,2017-05-03T13:00:00Z,26.6955,-81.8138,1.408,8.83,1111122 
SCCF RECON,ioos:station:SCCF:18:1,2017-05-03T14:00:00Z,26.6955,-81.8138,1.458,8.74,1111122 
SCCF RECON,ioos:station:SCCF:18:1,2017-05-03T15:00:00Z,26.6955,-81.8138,1.503,8.75,1111122 
SCCF RECON,ioos:station:SCCF:18:1,2017-05-03T16:00:00Z,26.6955,-81.8138,1.536,8.63,1111122 
SCCF RECON,ioos:station:SCCF:18:1,2017-05-03T17:00:00Z,26.6955,-81.8138,1.538,8.64,1111122 
SCCF RECON,ioos:station:SCCF:18:1,2017-05-03T18:00:00Z,26.6955,-81.8138,1.514,8.64,1111122 
SCCF RECON,ioos:station:SCCF:18:1,2017-05-03T19:00:00Z,26.6955,-81.8138,1.46,8.5,1111122 
SCCF RECON,ioos:station:SCCF:18:1,2017-05-03T20:00:00Z,26.6955,-81.8138,1.446,8.41,1111122 
SCCF RECON,ioos:station:SCCF:18:1,2017-05-03T21:00:00Z,26.6955,-81.8138,1.403,8.36,1111122 
SCCF RECON,ioos:station:SCCF:18:1,2017-05-03T22:00:00Z,26.6955,-81.8138,1.367,8.24,1111122 
SCCF RECON,ioos:station:SCCF:18:1,2017-05-03T23:00:00Z,26.6955,-81.8138,1.42,8.36,1111122 
SCCF RECON,ioos:station:SCCF:18:1,2017-05-04T00:00:00Z,26.6955,-81.8138,1.51,8.79,1111122 
SCCF RECON,ioos:station:SCCF:18:1,2017-05-04T01:00:00Z,26.6955,-81.8138,1.556,8.73,1111122 
SCCF RECON,ioos:station:SCCF:18:1,2017-05-04T02:00:00Z,26.6955,-81.8138,1.562,8.3,1111122 
SCCF RECON,ioos:station:SCCF:18:1,2017-05-04T03:00:00Z,26.6955,-81.8138,1.592,8.82,1111122 
SCCF RECON,ioos:station:SCCF:18:1,2017-05-04T04:00:00Z,26.6955,-81.8138,1.62,8.24,1111122 
SCCF RECON,ioos:station:SCCF:18:1,2017-05-04T05:00:00Z,26.6955,-81.8138,1.589,8.14,1111122 
SCCF RECON,ioos:station:SCCF:18:1,2017-05-04T06:00:00Z,26.6955,-81.8138,1.516,8.08,1111122 
SCCF RECON,ioos:station:SCCF:18:1,2017-05-04T07:00:00Z,26.6955,-81.8138,1.438,8.06,1111122 
SCCF RECON,ioos:station:SCCF:18:1,2017-05-04T08:00:00Z,26.6955,-81.8138,1.39,8.05,1111122 
SCCF RECON,ioos:station:SCCF:18:1,2017-05-04T09:00:00Z,26.6955,-81.8138,1.338,7.75,1111122 
SCCF RECON,ioos:station:SCCF:18:1,2017-05-04T10:00:00Z,26.6955,-81.8138,1.289,7.54,1111122 
SCCF RECON,ioos:station:SCCF:18:1,2017-05-04T11:00:00Z,26.6955,-81.8138,1.26,7.37,1111122 
SCCF RECON,ioos:station:SCCF:18:1,2017-05-04T12:00:00Z,26.6955,-81.8138,1.265,7.11,1111122 
SCCF RECON,ioos:station:SCCF:18:1,2017-05-04T13:00:00Z,26.6955,-81.8138,1.331,7.67,1111122 
SCCF RECON,ioos:station:SCCF:18:1,2017-05-04T14:00:00Z,26.6955,-81.8138,1.42,7.65,1111122 
SCCF RECON,ioos:station:SCCF:18:1,2017-05-04T15:00:00Z,26.6955,-81.8138,1.49,8.78,1111122 
SCCF RECON,ioos:station:SCCF:18:1,2017-05-04T16:00:00Z,26.6955,-81.8138,1.531,8.91,1111122 
SCCF RECON,ioos:station:SCCF:18:1,2017-05-04T17:00:00Z,26.6955,-81.8138,1.591,8.85,1111122 
SCCF RECON,ioos:station:SCCF:18:1,2017-05-04T18:00:00Z,26.6955,-81.8138,1.67,9.73,1111122 
SCCF RECON,ioos:station:SCCF:18:1,2017-05-04T19:00:00Z,26.6955,-81.8138,1.71,10.0,1111122 
SCCF RECON,ioos:station:SCCF:18:1,2017-05-04T20:00:00Z,26.6955,-81.8138,1.657,10.29,1111122 
SCCF RECON,ioos:station:SCCF:18:1,2017-05-04T21:00:00Z,26.6955,-81.8138,1.589,9.69,1111122 
SCCF RECON,ioos:station:SCCF:18:1,2017-05-04T22:00:00Z,26.6955,-81.8138,1.542,9.03,1111122 
SCCF RECON,ioos:station:SCCF:18:1,2017-05-04T23:00:00Z,26.6955,-81.8138,1.511,8.82,1111122 
SCCF RECON,ioos:station:SCCF:18:1,2017-05-05T00:00:00Z,26.6955,-81.8138,1.485,8.36,1111122 
SCCF RECON,ioos:station:SCCF:18:1,2017-05-05T01:00:00Z,26.6955,-81.8138,1.515,8.57,1111122 
SCCF RECON,ioos:station:SCCF:18:1,2017-05-05T02:00:00Z,26.6955,-81.8138,1.577,9.18,1111122 
SCCF RECON,ioos:station:SCCF:18:1,2017-05-05T03:00:00Z,26.6955,-81.8138,1.615,9.43,1111122 
SCCF RECON,ioos:station:SCCF:18:1,2017-05-05T04:00:00Z,26.6955,-81.8138,1.61,8.92,1111122 
SCCF RECON,ioos:station:SCCF:18:1,2017-05-05T05:00:00Z,26.6955,-81.8138,1.59,8.42,1111122 
SCCF RECON,ioos:station:SCCF:18:1,2017-05-05T06:00:00Z,26.6955,-81.8138,1.55,8.12,1111122 
SCCF RECON,ioos:station:SCCF:18:1,2017-05-05T07:00:00Z,26.6955,-81.8138,1.52,7.9,1111122 
SCCF RECON,ioos:station:SCCF:18:1,2017-05-05T08:00:00Z,26.6955,-81.8138,1.535,8.03,1111122 
SCCF RECON,ioos:station:SCCF:18:1,2017-05-05T09:00:00Z,26.6955,-81.8138,1.51,8.59,1111122 
SCCF RECON,ioos:station:SCCF:18:1,2017-05-05T10:00:00Z,26.6955,-81.8138,1.427,7.96,1111122 
SCCF RECON,ioos:station:SCCF:18:1,2017-05-05T11:00:00Z,26.6955,-81.8138,1.359,7.83,1111122 
SCCF RECON,ioos:station:SCCF:18:1,2017-05-05T12:00:00Z,26.6955,-81.8138,1.358,7.72,1111122 
SCCF RECON,ioos:station:SCCF:18:1,2017-05-05T13:00:00Z,26.6955,-81.8138,1.399,8.05,1111122 
SCCF RECON,ioos:station:SCCF:18:1,2017-05-05T14:00:00Z,26.6955,-81.8138,1.451,8.41,1111122 
SCCF RECON,ioos:station:SCCF:18:1,2017-05-05T15:00:00Z,26.6955,-81.8138,1.522,8.73,1111122 
SCCF RECON,ioos:station:SCCF:18:1,2017-05-05T16:00:00Z,26.6955,-81.8138,1.58,9.02,1111122 
SCCF RECON,ioos:station:SCCF:18:1,2017-05-05T17:00:00Z,26.6955,-81.8138,1.626,9.09,1111122 
SCCF RECON,ioos:station:SCCF:18:1,2017-05-05T18:00:00Z,26.6955,-81.8138,1.649,9.18,1111122 
SCCF RECON,ioos:station:SCCF:18:1,2017-05-05T19:00:00Z,26.6955,-81.8138,1.6,9.0,1111122 
SCCF RECON,ioos:station:SCCF:18:1,2017-05-05T20:00:00Z,26.6955,-81.8138,1.539,8.49,1111122 
SCCF RECON,ioos:station:SCCF:18:1,2017-05-05T21:00:00Z,26.6955,-81.8138,1.492,8.67,1111122 
SCCF RECON,ioos:station:SCCF:18:1,2017-05-05T22:00:00Z,26.6955,-81.8138,1.458,8.61,1111122 
SCCF RECON,ioos:station:SCCF:18:1,2017-05-05T23:00:00Z,26.6955,-81.8138,1.416,8.54,1111122 
SCCF RECON,ioos:station:SCCF:18:1,2017-05-06T00:00:00Z,26.6955,-81.8138,1.366,8.34,1111122 
SCCF RECON,ioos:station:SCCF:18:1,2017-05-06T01:00:00Z,26.6955,-81.8138,1.34,8.15,1111122 
SCCF RECON,ioos:station:SCCF:18:1,2017-05-06T02:00:00Z,26.6955,-81.8138,1.359,7.99,1111122 
SCCF RECON,ioos:station:SCCF:18:1,2017-05-06T03:00:00Z,26.6955,-81.8138,1.425,8.43,1111122 
SCCF RECON,ioos:station:SCCF:18:1,2017-05-06T04:00:00Z,26.6955,-81.8138,1.498,8.87,1111122 
SCCF RECON,ioos:station:SCCF:18:1,2017-05-06T05:00:00Z,26.6955,-81.8138,1.55,8.97,1111122 
SCCF RECON,ioos:station:SCCF:18:1,2017-05-06T06:00:00Z,26.6955,-81.8138,1.577,9.0,1111122 
SCCF RECON,ioos:station:SCCF:18:1,2017-05-06T07:00:00Z,26.6955,-81.8138,1.61,9.15,1111122 
SCCF RECON,ioos:station:SCCF:18:1,2017-05-06T08:00:00Z,26.6955,-81.8138,1.556,9.06,1111122 
SCCF RECON,ioos:station:SCCF:18:1,2017-05-06T09:00:00Z,26.6955,-81.8138,1.48,8.72,1111122 
SCCF RECON,ioos:station:SCCF:18:1,2017-05-06T10:00:00Z,26.6955,-81.8138,1.419,8.45,1111122 
SCCF RECON,ioos:station:SCCF:18:1,2017-05-06T11:00:00Z,26.6955,-81.8138,1.386,8.3,1111122 
SCCF RECON,ioos:station:SCCF:18:1,2017-05-06T12:00:00Z,26.6955,-81.8138,1.344,8.12,1111122 
SCCF RECON,ioos:station:SCCF:18:1,2017-05-06T13:00:00Z,26.6955,-81.8138,1.29,8.16,1111122 
SCCF RECON,ioos:station:SCCF:18:1,2017-05-06T14:00:00Z,26.6955,-81.8138,1.253,8.04,1111122 
SCCF RECON,ioos:station:SCCF:18:1,2017-05-06T15:00:00Z,26.6955,-81.8138,1.283,8.02,1111122 
SCCF RECON,ioos:station:SCCF:18:1,2017-05-06T16:00:00Z,26.6955,-81.8138,1.361,8.36,1111122 
SCCF RECON,ioos:station:SCCF:18:1,2017-05-06T17:00:00Z,26.6955,-81.8138,1.449,8.49,1111122 
SCCF RECON,ioos:station:SCCF:18:1,2017-05-06T18:00:00Z,26.6955,-81.8138,1.489,8.61,1111122 
SCCF RECON,ioos:station:SCCF:18:1,2017-05-06T19:00:00Z,26.6955,-81.8138,1.493,8.67,1111122 
SCCF RECON,ioos:station:SCCF:18:1,2017-05-06T20:00:00Z,26.6955,-81.8138,1.438,8.47,1111122 
SCCF RECON,ioos:station:SCCF:18:1,2017-05-06T21:00:00Z,26.6955,-81.8138,1.384,8.48,1111122 
SCCF RECON,ioos:station:SCCF:18:1,2017-05-06T22:00:00Z,26.6955,-81.8138,1.34,8.28,1111122 
SCCF RECON,ioos:station:SCCF:18:1,2017-05-06T23:00:00Z,26.6955,-81.8138,1.293,8.15,1111122 
SCCF RECON,ioos:station:SCCF:18:1,2017-05-07T00:00:00Z,26.6955,-81.8138,1.254,8.03,1111122 
SCCF RECON,ioos:station:SCCF:18:1,2017-05-07T01:00:00Z,26.6955,-81.8138,1.229,7.9,1111122 
SCCF RECON,ioos:station:SCCF:18:1,2017-05-07T02:00:00Z,26.6955,-81.8138,1.22,7.8,1111122 
SCCF RECON,ioos:station:SCCF:18:1,2017-05-07T03:00:00Z,26.6955,-81.8138,1.28,7.87,1111122 
SCCF RECON,ioos:station:SCCF:18:1,2017-05-07T04:00:00Z,26.6955,-81.8138,1.35,8.06,1111122 
SCCF RECON,ioos:station:SCCF:18:1,2017-05-07T05:00:00Z,26.6955,-81.8138,1.405,7.92,1111122 
SCCF RECON,ioos:station:SCCF:18:1,2017-05-07T06:00:00Z,26.6955,-81.8138,1.44,8.22,1111122 
SCCF RECON,ioos:station:SCCF:18:1,2017-05-07T07:00:00Z,26.6955,-81.8138,1.48,8.39,1111122 
SCCF RECON,ioos:station:SCCF:18:1,2017-05-07T08:00:00Z,26.6955,-81.8138,1.49,8.04,1111122 
SCCF RECON,ioos:station:SCCF:18:1,2017-05-07T09:00:00Z,26.6955,-81.8138,1.438,7.97,1111122 
SCCF RECON,ioos:station:SCCF:18:1,2017-05-07T10:00:00Z,26.6955,-81.8138,1.38,7.66,1111122 
SCCF RECON,ioos:station:SCCF:18:1,2017-05-07T11:00:00Z,26.6955,-81.8138,1.332,7.63,1111122 
SCCF RECON,ioos:station:SCCF:18:1,2017-05-07T12:00:00Z,26.6955,-81.8138,1.303,7.49,1111122 
SCCF RECON,ioos:station:SCCF:18:1,2017-05-07T13:00:00Z,26.6955,-81.8138,1.27,7.47,1111122 
SCCF RECON,ioos:station:SCCF:18:1,2017-05-07T14:00:00Z,26.6955,-81.8138,1.27,7.43,1111122 
SCCF RECON,ioos:station:SCCF:18:1,2017-05-07T15:00:00Z,26.6955,-81.8138,1.34,7.8,1111122 
SCCF RECON,ioos:station:SCCF:18:1,2017-05-07T16:00:00Z,26.6955,-81.8138,1.421,8.23,1111122 
SCCF RECON,ioos:station:SCCF:18:1,2017-05-07T17:00:00Z,26.6955,-81.8138,1.487,8.14,1111122 
SCCF RECON,ioos:station:SCCF:18:1,2017-05-07T18:00:00Z,26.6955,-81.8138,1.529,8.16,1111122 
SCCF RECON,ioos:station:SCCF:18:1,2017-05-07T19:00:00Z,26.6955,-81.8138,1.568,8.46,1111122 
SCCF RECON,ioos:station:SCCF:18:1,2017-05-07T20:00:00Z,26.6955,-81.8138,1.563,8.56,1111122 
SCCF RECON,ioos:station:SCCF:18:1,2017-05-07T21:00:00Z,26.6955,-81.8138,1.491,8.26,1111122 
SCCF RECON,ioos:station:SCCF:18:1,2017-05-07T22:00:00Z,26.6955,-81.8138,1.412,7.96,1111122 
SCCF RECON,ioos:station:SCCF:18:1,2017-05-07T23:00:00Z,26.6955,-81.8138,1.36,7.64,1111122 
SCCF RECON,ioos:station:SCCF:18:1,2017-05-08T00:00:00Z,26.6955,-81.8138,1.33,7.59,1111122 
SCCF RECON,ioos:station:SCCF:18:1,2017-05-08T01:00:00Z,26.6955,-81.8138,1.278,7.49,1111122 
SCCF RECON,ioos:station:SCCF:18:1,2017-05-08T02:00:00Z,26.6955,-81.8138,1.23,7.45,1111122 
SCCF RECON,ioos:station:SCCF:18:1,2017-05-08T03:00:00Z,26.6955,-81.8138,1.21,7.27,1111122 
SCCF RECON,ioos:station:SCCF:18:1,2017-05-08T04:00:00Z,26.6955,-81.8138,1.245,7.3,1111122 
SCCF RECON,ioos:station:SCCF:18:1,2017-05-08T05:00:00Z,26.6955,-81.8138,1.31,7.7,1111122 
SCCF RECON,ioos:station:SCCF:18:1,2017-05-08T06:00:00Z,26.6955,-81.8138,1.366,7.79,1111122 
SCCF RECON,ioos:station:SCCF:18:1,2017-05-08T07:00:00Z,26.6955,-81.8138,1.393,7.5,1111122 
SCCF RECON,ioos:station:SCCF:18:1,2017-05-08T08:00:00Z,26.6955,-81.8138,1.41,7.64,1111122 
SCCF RECON,ioos:station:SCCF:18:1,2017-05-08T09:00:00Z,26.6955,-81.8138,1.4,7.64,1111122 
SCCF RECON,ioos:station:SCCF:18:1,2017-05-08T10:00:00Z,26.6955,-81.8138,1.345,7.3,1111122 
SCCF RECON,ioos:station:SCCF:18:1,2017-05-08T11:00:00Z,26.6955,-81.8138,1.296,7.23,1111122 
SCCF RECON,ioos:station:SCCF:18:1,2017-05-08T12:00:00Z,26.6955,-81.8138,1.27,7.11,1111122 
SCCF RECON,ioos:station:SCCF:18:1,2017-05-08T13:00:00Z,26.6955,-81.8138,1.24,6.98,1111122 
SCCF RECON,ioos:station:SCCF:18:1,2017-05-08T14:00:00Z,26.6955,-81.8138,1.203,6.91,1111122 
SCCF RECON,ioos:station:SCCF:18:1,2017-05-08T15:00:00Z,26.6955,-81.8138,1.233,6.98,1111122 
SCCF RECON,ioos:station:SCCF:18:1,2017-05-08T16:00:00Z,26.6955,-81.8138,1.311,7.38,1111122 
SCCF RECON,ioos:station:SCCF:18:1,2017-05-08T17:00:00Z,26.6955,-81.8138,1.4,7.62,1111122 
SCCF RECON,ioos:station:SCCF:18:1,2017-05-08T18:00:00Z,26.6955,-81.8138,1.45,8.09,1111122 
SCCF RECON,ioos:station:SCCF:18:1,2017-05-08T19:00:00Z,26.6955,-81.8138,1.505,8.38,1111122 
SCCF RECON,ioos:station:SCCF:18:1,2017-05-08T20:00:00Z,26.6955,-81.8138,1.54,8.51,1111122 
SCCF RECON,ioos:station:SCCF:18:1,2017-05-08T21:00:00Z,26.6955,-81.8138,1.51,8.69,1111122 
SCCF RECON,ioos:station:SCCF:18:1,2017-05-08T22:00:00Z,26.6955,-81.8138,1.438,8.17,1111122 
SCCF RECON,ioos:station:SCCF:18:1,2017-05-08T23:00:00Z,26.6955,-81.8138,1.37,7.72,1111122 
SCCF RECON,ioos:station:SCCF:18:1,2017-05-09T00:00:00Z,26.6955,-81.8138,1.324,7.28,1111122 
SCCF RECON,ioos:station:SCCF:18:1,2017-05-09T01:00:00Z,26.6955,-81.8138,1.28,7.2,1111122 
SCCF RECON,ioos:station:SCCF:18:1,2017-05-09T02:00:00Z,26.6955,-81.8138,1.238,7.01,1111122 
SCCF RECON,ioos:station:SCCF:18:1,2017-05-09T03:00:00Z,26.6955,-81.8138,1.2,6.79,1111122 
SCCF RECON,ioos:station:SCCF:18:1,2017-05-09T04:00:00Z,26.6955,-81.8138,1.21,6.75,1111122 
SCCF RECON,ioos:station:SCCF:18:1,2017-05-09T05:00:00Z,26.6955,-81.8138,1.274,7.35,1111122 
SCCF RECON,ioos:station:SCCF:18:1,2017-05-09T06:00:00Z,26.6955,-81.8138,1.346,7.4,1111122 
SCCF RECON,ioos:station:SCCF:18:1,2017-05-09T07:00:00Z,26.6955,-81.8138,1.39,7.58,1111122 
SCCF RECON,ioos:station:SCCF:18:1,2017-05-09T08:00:00Z,26.6955,-81.8138,1.425,7.97,1111122 
SCCF RECON,ioos:station:SCCF:18:1,2017-05-09T09:00:00Z,26.6955,-81.8138,1.446,7.86,1111122 
SCCF RECON,ioos:station:SCCF:18:1,2017-05-09T10:00:00Z,26.6955,-81.8138,1.4,7.08,1111122 
SCCF RECON,ioos:station:SCCF:18:1,2017-05-09T11:00:00Z,26.6955,-81.8138,1.349,6.85,1111122 
SCCF RECON,ioos:station:SCCF:18:1,2017-05-09T12:00:00Z,26.6955,-81.8138,1.302,6.93,1111122 
SCCF RECON,ioos:station:SCCF:18:1,2017-05-09T13:00:00Z,26.6955,-81.8138,1.28,6.66,1111122 
SCCF RECON,ioos:station:SCCF:18:1,2017-05-09T14:00:00Z,26.6955,-81.8138,1.258,6.48,1111122 
SCCF RECON,ioos:station:SCCF:18:1,2017-05-09T15:00:00Z,26.6955,-81.8138,1.259,6.6,1111122 
SCCF RECON,ioos:station:SCCF:18:1,2017-05-09T16:00:00Z,26.6955,-81.8138,1.33,7.28,1111122 
SCCF RECON,ioos:station:SCCF:18:1,2017-05-09T17:00:00Z,26.6955,-81.8138,1.42,7.05,1111122 
SCCF RECON,ioos:station:SCCF:18:1,2017-05-09T18:00:00Z,26.6955,-81.8138,1.479,7.88,1111122 
SCCF RECON,ioos:station:SCCF:18:1,2017-05-09T19:00:00Z,26.6955,-81.8138,1.523,7.94,1111122 
SCCF RECON,ioos:station:SCCF:18:1,2017-05-09T20:00:00Z,26.6955,-81.8138,1.577,8.12,1111122 
SCCF RECON,ioos:station:SCCF:18:1,2017-05-09T21:00:00Z,26.6955,-81.8138,1.578,8.6,1111122 
SCCF RECON,ioos:station:SCCF:18:1,2017-05-09T22:00:00Z,26.6955,-81.8138,1.521,8.15,1111122 
SCCF RECON,ioos:station:SCCF:18:1,2017-05-09T23:00:00Z,26.6955,-81.8138,1.44,7.37,1111122 
SCCF RECON,ioos:station:SCCF:18:1,2017-05-10T00:00:00Z,26.6955,-81.8138,1.378,7.23,1111122 
SCCF RECON,ioos:station:SCCF:18:1,2017-05-10T01:00:00Z,26.6955,-81.8138,1.33,6.92,1111122 
SCCF RECON,ioos:station:SCCF:18:1,2017-05-10T02:00:00Z,26.6955,-81.8138,1.285,6.51,1111122 
SCCF RECON,ioos:station:SCCF:18:1,2017-05-10T03:00:00Z,26.6955,-81.8138,1.238,6.41,1111122 
SCCF RECON,ioos:station:SCCF:18:1,2017-05-10T04:00:00Z,26.6955,-81.8138,1.208,6.35,1111122 
SCCF RECON,ioos:station:SCCF:18:1,2017-05-10T05:00:00Z,26.6955,-81.8138,1.245,6.6,1111122 
SCCF RECON,ioos:station:SCCF:18:1,2017-05-10T06:00:00Z,26.6955,-81.8138,1.312,7.18,1111122 
SCCF RECON,ioos:station:SCCF:18:1,2017-05-10T07:00:00Z,26.6955,-81.8138,1.38,7.36,1111122 
SCCF RECON,ioos:station:SCCF:18:1,2017-05-10T08:00:00Z,26.6955,-81.8138,1.42,7.5,1111122 
SCCF RECON,ioos:station:SCCF:18:1,2017-05-10T09:00:00Z,26.6955,-81.8138,1.45,7.63,1111122 
SCCF RECON,ioos:station:SCCF:18:1,2017-05-10T10:00:00Z,26.6955,-81.8138,1.45,7.11,1111122 
SCCF RECON,ioos:station:SCCF:18:1,2017-05-10T11:00:00Z,26.6955,-81.8138,1.4,6.57,1111122 
SCCF RECON,ioos:station:SCCF:18:1,2017-05-10T12:00:00Z,26.6955,-81.8138,1.344,6.57,1111122 
SCCF RECON,ioos:station:SCCF:18:1,2017-05-10T13:00:00Z,26.6955,-81.8138,1.317,6.61,1111122 
SCCF RECON,ioos:station:SCCF:18:1,2017-05-10T14:00:00Z,26.6955,-81.8138,1.296,6.5,1111122 
SCCF RECON,ioos:station:SCCF:18:1,2017-05-10T15:00:00Z,26.6955,-81.8138,1.273,6.2,1111122 
SCCF RECON,ioos:station:SCCF:18:1,2017-05-10T16:00:00Z,26.6955,-81.8138,1.322,6.41,1111122 
SCCF RECON,ioos:station:SCCF:18:1,2017-05-10T17:00:00Z,26.6955,-81.8138,1.403,7.12,1111122 
SCCF RECON,ioos:station:SCCF:18:1,2017-05-10T18:00:00Z,26.6955,-81.8138,1.487,7.28,1111122 
SCCF RECON,ioos:station:SCCF:18:1,2017-05-10T19:00:00Z,26.6955,-81.8138,1.538,7.7,1111122 
SCCF RECON,ioos:station:SCCF:18:1,2017-05-10T20:00:00Z,26.6955,-81.8138,1.586,8.15,1111122 
SCCF RECON,ioos:station:SCCF:18:1,2017-05-10T21:00:00Z,26.6955,-81.8138,1.61,8.44,1111122 
SCCF RECON,ioos:station:SCCF:18:1,2017-05-10T22:00:00Z,26.6955,-81.8138,1.57,8.35,1111122 
SCCF RECON,ioos:station:SCCF:18:1,2017-05-10T23:00:00Z,26.6955,-81.8138,1.499,7.73,1111122 
SCCF RECON,ioos:station:SCCF:18:1,2017-05-11T00:00:00Z,26.6955,-81.8138,1.43,7.61,1111122 
SCCF RECON,ioos:station:SCCF:18:1,2017-05-11T01:00:00Z,26.6955,-81.8138,1.38,7.2,1111122 
SCCF RECON,ioos:station:SCCF:18:1,2017-05-11T02:00:00Z,26.6955,-81.8138,1.33,6.87,1111122 
SCCF RECON,ioos:station:SCCF:18:1,2017-05-11T03:00:00Z,26.6955,-81.8138,1.28,6.64,1111122 
SCCF RECON,ioos:station:SCCF:18:1,2017-05-11T04:00:00Z,26.6955,-81.8138,1.24,6.59,1111122 
SCCF RECON,ioos:station:SCCF:18:1,2017-05-11T05:00:00Z,26.6955,-81.8138,1.246,6.55,1111122 
SCCF RECON,ioos:station:SCCF:18:1,2017-05-11T06:00:00Z,26.6955,-81.8138,1.307,6.95,1111122 
SCCF RECON,ioos:station:SCCF:18:1,2017-05-11T07:00:00Z,26.6955,-81.8138,1.38,7.32,1111122 
SCCF RECON,ioos:station:SCCF:18:1,2017-05-11T08:00:00Z,26.6955,-81.8138,1.422,7.49,1111122 
SCCF RECON,ioos:station:SCCF:18:1,2017-05-11T09:00:00Z,26.6955,-81.8138,1.458,7.85,1111122 
SCCF RECON,ioos:station:SCCF:18:1,2017-05-11T10:00:00Z,26.6955,-81.8138,1.49,7.82,1111122 
SCCF RECON,ioos:station:SCCF:18:1,2017-05-11T11:00:00Z,26.6955,-81.8138,1.478,7.34,1111122 
SCCF RECON,ioos:station:SCCF:18:1,2017-05-11T12:00:00Z,26.6955,-81.8138,1.41,6.6,1111122 
SCCF RECON,ioos:station:SCCF:18:1,2017-05-11T13:00:00Z,26.6955,-81.8138,1.35,6.85,1111122 
SCCF RECON,ioos:station:SCCF:18:1,2017-05-11T14:00:00Z,26.6955,-81.8138,1.32,6.86,1111122 
SCCF RECON,ioos:station:SCCF:18:1,2017-05-11T15:00:00Z,26.6955,-81.8138,1.302,6.62,1111122 
SCCF RECON,ioos:station:SCCF:18:1,2017-05-11T16:00:00Z,26.6955,-81.8138,1.298,6.58,1111122 
SCCF RECON,ioos:station:SCCF:18:1,2017-05-11T17:00:00Z,26.6955,-81.8138,1.37,7.21,1111122 
SCCF RECON,ioos:station:SCCF:18:1,2017-05-11T18:00:00Z,26.6955,-81.8138,1.46,7.36,1111122 
SCCF RECON,ioos:station:SCCF:18:1,2017-05-11T19:00:00Z,26.6955,-81.8138,1.545,7.86,1111122 
SCCF RECON,ioos:station:SCCF:18:1,2017-05-11T20:00:00Z,26.6955,-81.8138,1.588,8.28,1111122 